Starlink 11415

operational
NORAD ID: 62592 Int'l Des: 2025-008 Owner: SPXS Country: US Constellation: starlink
LEOCIRCULAR

Starlink 11415について

説明を読み込み中...

リアルタイム位置

3D地球を読み込み中...

次回通過

高度履歴

Altitude vs Time

uPlot chart will show altitude changes over time

軌道要素

1 62592U 25008F 26034.88513520 .00237599 00000-0 17894-2 0 9992
2 62592 42.9974 330.2855 0001870 222.6943 137.3779 15.71016583 61901
Epoch: Feb 3, 2026 • Age: 15 hours

現在のステータス

高度 359.7 km
速度 7.69 km/s
衛星直下点 -23.74°S, 138.42°W
打ち上げ日 Jan 13, 2025
運用期間 1 years
タイプ internet

技術仕様

分類 Payload
質量 960.00 kg
乾燥質量 910.00 kg
総質量 960.00 kg
長さ 0.30 m
直径 4.10 m
スパン 29.00 m
形状 Box + pan
製造者 SPXS
バスタイプ Starlink V2MD
フェーズステータス In Orbit
所有者/国 SPXS/US

大規模コンステレーション

Loading constellations...